EW8591 Weather Reports


time (UTC)temp
C
wind
direction
speed
KPH
gust
KPH
rain 1hr
cm
rain 24hr
cm
rain mn
cm
humidity
%
barometer
mb
20200226005900 2 158 8.0 16.1 0.00 0.61 0.00 74 946.7
20200226005402 2 135 3.2 14.5 0.00 0.61 0.00 74 946.7
20200226004900 3 158 14.5 16.1 0.00 0.61 0.00 73 946.7
20200226004356 3 202 16.1 16.1 0.00 0.61 0.00 74 946.7
20200226003849 3 158 6.4 9.7 0.00 0.61 0.00 74 946.7
20200226003312 3 202 6.4 8.0 0.00 0.61 0.00 74 946.7
20200226002801 3 202 4.8 8.0 0.00 0.61 0.00 74 946.7
20200226002301 3 112 6.4 8.0 0.00 0.61 0.00 74 946.7
20200226001802 3 135 1.6 9.7 0.00 0.61 0.00 74 946.7
20200226001300 3 158 4.8 16.1 0.00 0.61 0.00 74 946.7
20200226000800 3 158 9.7 16.1 0.00 0.61 0.00 73 946.7
20200226000300 3 158 12.9 14.5 0.00 0.61 0.00 74 946.7
20200225235800 3 112 9.7 14.5 0.00 0.61 0.00 76 946.7
20200225235300 3 202 4.8 6.4 0.00 0.61 0.00 77 946.7
20200225234800 3 158 3.2 9.7 0.00 0.61 0.00 77 946.7
20200225234301 3 158 3.2 9.7 0.00 0.61 0.00 77 946.7
20200225233800 3 158 3.2 6.4 0.00 0.61 0.00 77 946.7
20200225233300 3 202 3.2 8.0 0.00 0.61 0.00 78 946.7
20200225232801 3 270 6.4 8.0 0.00 0.61 0.00 78 946.7
20200225232300 3 202 4.8 11.3 0.00 0.61 0.00 78 946.7
20200225231758 3 180 3.2 11.3 0.00 0.61 0.00 79 946.7
20200225231300 3 248 6.4 6.4 0.00 0.61 0.00 81 946.7
20200225230800 3 135 3.2 8.0 0.00 0.61 0.00 81 946.7
20200225230300 3 248 1.6 8.0 0.00 0.61 0.00 81 946.7
20200225225800 3 158 6.4 9.7 0.00 0.61 0.61 81 946.7
20200225225302 3 112 4.8 9.7 0.00 0.61 0.61 81 946.7
20200225224800 3 202 4.8 14.5 0.00 0.61 0.61 80 946.7
20200225224300 3 90 3.2 14.5 0.00 0.61 0.61 80 946.7
20200225223801 3 112 3.2 6.4 0.00 0.61 0.61 79 946.7
20200225223300 3 90 4.8 4.8 0.00 0.61 0.61 79 946.7
20200225222800 3 112 4.8 6.4 0.00 0.61 0.61 78 946.7
20200225222300 3 112 4.8 6.4 0.00 0.61 0.61 78 946.7
20200225221747 3 112 1.6 3.2 0.00 0.61 0.61 78 947.7
20200225221244 3 158 1.6 3.2 0.00 0.61 0.61 78 947.7
20200225220708 3 158 0.0 4.8 0.00 0.61 0.61 78 947.7
20200225220202 3 112 3.2 4.8 0.00 0.61 0.61 78 947.7
20200225215701 3 158 3.2 4.8 0.00 0.61 0.61 78 947.7
20200225215200 3 112 4.8 4.8 0.00 0.61 0.61 77 947.7
20200225214659 3 112 3.2 6.4 0.00 0.61 0.61 77 947.7
20200225214200 3 158 1.6 6.4 0.00 0.61 0.61 77 947.7
20200225213700 3 45 3.2 6.4 0.00 0.61 0.61 77 947.7
20200225213200 3 202 6.4 6.4 0.00 0.61 0.61 77 947.7
20200225212700 3 112 3.2 4.8 0.00 0.61 0.61 77 947.7
20200225212200 3 158 1.6 3.2 0.00 0.61 0.61 76 947.7
20200225211700 3 158 1.6 3.2 0.00 0.61 0.61 77 947.7
20200225211200 3 112 1.6 3.2 0.00 0.61 0.61 76 947.7
20200225210700 3 112 1.6 6.4 0.00 0.61 0.61 76 947.7
20200225210201 3 202 3.2 6.4 0.00 0.61 0.61 76 948.7
20200225205700 4 135 4.8 4.8 0.00 0.61 0.61 76 948.7
20200225205200 4 112 0.0 3.2 0.00 0.61 0.61 76 948.7
20200225204700 4 135 0.0 9.7 0.00 0.61 0.61 76 948.7
20200225204200 4 180 3.2 9.7 0.00 0.61 0.61 76 948.7
20200225203700 4 180 3.2 4.8 0.00 0.61 0.61 76 948.7
20200225203200 3 158 4.8 9.7 0.00 0.61 0.61 76 948.7
20200225202700 3 158 6.4 9.7 0.00 0.61 0.61 75 948.7
20200225202200 3 202 4.8 9.7 0.00 0.61 0.61 76 948.7
20200225201700 3 158 8.0 9.7 0.00 0.61 0.61 75 948.7
20200225201201 4 158 8.0 11.3 0.00 0.61 0.61 76 948.7
20200225200700 3 158 6.4 11.3 0.00 0.61 0.61 76 948.7
20200225200200 3 112 4.8 9.7 0.00 0.61 0.61 75 948.7
20200225195653 4 180 6.4 6.4 0.00 0.61 0.61 76 948.7
20200225195148 4 158 4.8 9.7 0.00 0.61 0.61 75 948.7
20200225194627 4 225 6.4 9.7 0.00 0.61 0.61 76 948.7
20200225194108 4 158 6.4 6.4 0.00 0.61 0.61 76 948.7
20200225193601 4 158 4.8 6.4 0.00 0.61 0.61 76 948.7
20200225193100 4 202 1.6 6.4 0.00 0.61 0.61 77 948.7
20200225192600 4 135 4.8 9.7 0.00 0.61 0.61 77 948.7
20200225192101 4 158 4.8 9.7 0.00 0.61 0.61 77 948.7
20200225191600 4 292 6.4 9.7 0.00 0.61 0.61 78 949.7
20200225191100 5 202 6.4 6.4 0.00 0.71 0.61 78 949.7
20200225190600 5 202 3.2 6.4 0.00 0.71 0.61 78 949.7
20200225190100 5 158 4.8 4.8 0.00 0.71 0.61 78 949.7
20200225185600 5 135 3.2 9.7 0.00 0.71 0.61 78 949.7
20200225185100 5 202 4.8 14.5 0.00 0.71 0.61 78 949.7
20200225184600 5 158 6.4 14.5 0.00 0.71 0.61 78 948.7
20200225184100 5 112 12.9 12.9 0.00 0.71 0.61 79 948.7
20200225183601 5 202 3.2 9.7 0.00 0.71 0.61 78 948.7
20200225183100 5 180 4.8 9.7 0.00 0.71 0.61 78 948.7
20200225182600 5 112 6.4 9.7 0.10 0.71 0.61 78 948.7
20200225182100 5 202 6.4 9.7 0.10 0.71 0.61 78 948.7
20200225181600 5 180 3.2 9.7 0.20 0.71 0.61 78 949.7
20200225181100 5 202 3.2 6.4 0.20 0.71 0.61 77 949.7
20200225180600 5 112 6.4 6.4 0.20 0.71 0.61 77 949.7
20200225180100 5 112 1.6 6.4 0.20 0.71 0.61 77 949.7
20200225175600 5 112 3.2 6.4 0.20 0.71 0.61 77 949.7
20200225175100 5 135 3.2 6.4 0.20 0.71 0.61 77 949.7
20200225174600 5 68 3.2 9.7 0.20 0.71 0.61 77 949.7
20200225174100 5 158 6.4 12.9 0.20 0.71 0.61 76 949.7
20200225173600 5 202 12.9 12.9 0.20 0.71 0.61 76 949.7
20200225173100 5 135 11.3 19.3 0.20 0.71 0.61 76 949.7
20200225172600 6 202 16.1 19.3 0.10 0.61 0.51 76 949.7
20200225172100 6 180 3.2 4.8 0.10 0.61 0.51 74 949.7
20200225171600 6 112 0.0 3.2 0.00 0.51 0.41 73 949.7
20200225171059 6 158 1.6 4.8 0.00 0.51 0.41 73 949.7
20200225170600 6 158 1.6 4.8 0.00 0.51 0.41 72 949.7
20200225170334 6 202 9.7 16.1 0.00 0.51 0.41 71 950.7
20200225170212 6 135 1.6 6.4 0.00 0.51 0.41 71 949.7
20200225170134 6 135 0.0 4.8 0.00 0.51 0.41 72 949.7
20200225170115 6 135 0.0 4.8 0.00 0.51 0.41 72 949.7
20200225164602 6 112 3.2 6.4 0.00 0.51 0.41 71 950.7
20200225164557 6 68 0.0 11.3 0.00 0.51 0.41 71 950.7
20200225163352 7 112 9.7 16.1 0.00 0.51 0.41 68 950.7
20200225163347 7 158 6.4 8.0 0.00 0.51 0.41 63 950.7
20200225163325 7 180 3.2 6.4 0.00 0.51 0.41 63 950.7
20200225163100 7 112 16.1 16.1 0.00 0.51 0.41 65 950.7
20200225161107 7 158 4.8 8.0 0.00 0.51 0.41 62 950.7
20200225160632 7 112 3.2 9.7 0.00 0.51 0.41 62 950.7
20200225160125 7 68 6.4 9.7 0.00 0.51 0.41 61 950.7
20200225155607 7 90 6.4 14.5 0.00 0.51 0.41 61 950.7
20200225155100 7 315 3.2 14.5 0.00 0.51 0.41 61 950.7
20200225154605 8 112 6.4 8.0 0.00 0.51 0.41 62 950.7
20200225154110 8 292 1.6 8.0 0.00 0.51 0.41 63 950.7
20200225153605 8 158 3.2 8.0 0.00 0.51 0.41 62 950.7
20200225153100 8 158 8.0 8.0 0.00 0.51 0.41 62 950.7
20200225152927 8 112 3.2 8.0 0.00 0.51 0.41 62 950.7
20200225152113 8 202 4.8 8.0 0.00 0.51 0.41 61 950.7
20200225151606 8 158 6.4 6.4 0.00 0.51 0.41 60 950.7
20200225151255 9 112 6.4 6.4 0.00 0.51 0.41 59 950.7
20200225151140 8 158 3.2 6.4 0.00 0.51 0.41 60 950.7
20200225150106 9 22 4.8 4.8 0.00 0.51 0.41 61 951.7
20200225145938 8 112 0.0 9.7 0.00 0.51 0.41 61 951.7
20200225145100 8 135 4.8 16.1 0.00 0.51 0.41 59 951.7
20200225144600 8 112 9.7 16.1 0.00 0.51 0.41 54 951.7
20200225144414 9 68 4.8 9.7 0.00 0.51 0.41 52 951.7
20200225143605 10 225 3.2 8.0 0.00 0.51 0.41 51 951.7
20200225143100 11 158 4.8 8.0 0.00 0.51 0.41 49 951.7
20200225142600 12 202 4.8 12.9 0.00 0.51 0.41 49 951.7
20200225142125 13 202 4.8 12.9 0.00 0.51 0.41 47 951.7
20200225141606 14 68 3.2 12.9 0.00 0.51 0.41 48 951.7
20200225141105 13 68 6.4 14.5 0.00 0.51 0.41 48 951.7
20200225140600 13 135 6.4 16.1 0.00 0.51 0.41 48 951.7
20200225140118 12 90 9.7 16.1 0.00 0.51 0.41 50 951.7
20200225135600 12 202 12.9 12.9 0.00 0.51 0.41 50 951.7
20200225135100 12 135 9.7 11.3 0.00 0.51 0.41 51 951.7
20200225134612 12 135 11.3 11.3 0.00 0.51 0.41 52 952.7
20200225134106 11 180 6.4 16.1 0.00 0.51 0.41 51 952.7
20200225133639 11 158 9.7 16.1 0.00 0.51 0.41 52 952.7
20200225133100 11 112 9.7 9.7 0.00 0.51 0.41 52 952.7
20200225132601 11 135 6.4 9.7 0.00 0.51 0.41 54 952.7
20200225132100 11 112 6.4 9.7 0.00 0.51 0.41 53 952.7
20200225131601 11 202 9.7 9.7 0.00 0.51 0.41 56 952.7
20200225131101 11 90 4.8 9.7 0.00 0.51 0.41 60 952.7
20200225130600 11 158 4.8 9.7 0.00 0.51 0.41 60 952.7
20200225130100 10 112 1.6 8.0 0.00 0.51 0.41 62 952.7
20200225125600 10 90 3.2 17.7 0.00 0.51 0.41 58 952.7
20200225125101 9 158 6.4 17.7 0.00 0.51 0.41 61 952.7
20200225124601 9 202 9.7 14.5 0.00 0.51 0.41 61 952.7
20200225124100 9 202 9.7 11.3 0.10 0.51 0.41 61 952.7
20200225123600 10 158 9.7 11.3 0.10 0.51 0.41 63 952.7
20200225123101 9 158 6.4 9.7 0.10 0.51 0.41 65 952.7
20200225122600 9 90 9.7 11.3 0.10 0.51 0.41 66 952.7
20200225122100 8 180 11.3 11.3 0.10 0.51 0.41 66 952.7
20200225121600 8 158 6.4 14.5 0.10 0.51 0.41 69 953.7
20200225121115 8 158 4.8 16.1 0.10 0.51 0.41 72 953.7
20200225120601 6 135 9.7 16.1 0.10 0.51 0.41 74 953.7
20200225120101 6 158 6.4 14.5 0.10 0.51 0.41 72 953.7
20200225115600 6 158 9.7 12.9 0.10 0.51 0.41 76 953.7
20200225115100 7 158 4.8 12.9 0.10 0.51 0.41 75 953.7
20200225114600 7 180 3.2 11.3 0.10 0.51 0.41 74 953.7
20200225114101 7 225 11.3 11.3 0.00 0.41 0.30 75 953.7
20200225113600 7 158 3.2 9.7 0.00 0.41 0.30 75 953.7
20200225113100 7 248 3.2 6.4 0.00 0.41 0.30 75 953.7
20200225112608 6 68 3.2 12.9 0.00 0.41 0.30 75 953.7
20200225112159 6 135 6.4 12.9 0.00 0.41 0.30 73 953.7
20200225112001 7 202 6.4 9.7 0.00 0.41 0.30 74 953.7
20200225111127 7 135 3.2 14.5 0.00 0.41 0.30 74 953.7
20200225110600 7 202 3.2 14.5 0.00 0.41 0.30 72 953.7
20200225110101 7 202 14.5 20.9 0.00 0.41 0.30 75 953.7
20200225105600 6 180 16.1 20.9 0.00 0.41 0.30 77 953.7
20200225105411 6 135 4.8 11.3 0.00 0.41 0.30 80 953.7
20200225104648 6 135 1.6 9.7 0.00 0.41 0.30 81 953.7
20200225104356 6 158 1.6 9.7 0.00 0.41 0.30 81 953.7
20200225103914 6 202 6.4 11.3 0.00 0.41 0.30 80 953.7
20200225103600 6 202 6.4 11.3 0.00 0.41 0.30 80 953.7
20200225103110 6 202 4.8 11.3 0.00 0.41 0.30 79 953.7
20200225102600 6 158 4.8 9.7 0.00 0.41 0.30 80 953.7
20200225102101 6 292 1.6 12.9 0.00 0.41 0.30 79 953.7
20200225101600 6 202 6.4 12.9 0.00 0.41 0.30 78 953.7
20200225100601 6 112 8.0 14.5 0.00 0.41 0.30 80 953.7
20200225100100 6 22 4.8 6.4 0.00 0.41 0.30 81 953.7
20200225095600 6 112 3.2 8.0 0.00 0.41 0.30 80 953.7
20200225095100 6 202 3.2 8.0 0.00 0.41 0.30 82 953.7
20200225094616 6 180 3.2 9.7 0.00 0.41 0.30 82 953.7
20200225094100 5 90 3.2 9.7 0.00 0.41 0.30 83 953.7
20200225093600 5 158 8.0 8.0 0.00 0.41 0.30 83 953.7
20200225093101 5 158 4.8 6.4 0.00 0.41 0.30 84 954.7
20200225092600 5 158 6.4 9.7 0.00 0.41 0.30 84 954.7
20200225092100 5 158 3.2 12.9 0.00 0.41 0.30 83 954.7
20200225091601 5 202 6.4 12.9 0.00 0.41 0.30 84 954.7
20200225091100 5 202 4.8 11.3 0.00 0.51 0.30 84 954.7
20200225090600 5 158 4.8 14.5 0.00 0.51 0.30 84 954.7
20200225090100 5 158 11.3 14.5 0.00 0.51 0.30 84 954.7
20200225085600 5 248 8.0 11.3 0.00 0.51 0.30 85 954.7
20200225085101 5 270 1.6 12.9 0.00 0.51 0.30 85 954.7
20200225084605 5 158 4.8 12.9 0.00 0.51 0.30 85 954.7
20200225084100 6 112 9.7 9.7 0.00 0.51 0.30 86 954.7
20200225083600 5 135 9.7 9.7 0.00 0.51 0.30 86 954.7
20200225083100 5 158 1.6 9.7 0.00 0.51 0.30 86 954.7
20200225082600 5 158 1.6 8.0 0.00 0.51 0.30 85 954.7
20200225082100 5 158 4.8 12.9 0.00 0.51 0.30 85 954.7
20200225081600 5 135 3.2 12.9 0.00 0.51 0.30 85 954.7
20200225081100 5 112 3.2 9.7 0.00 0.51 0.30 85 954.7
20200225080600 5 225 9.7 9.7 0.00 0.51 0.30 86 954.7
20200225080105 5 248 4.8 9.7 0.00 0.51 0.30 87 953.7
20200225075600 5 202 3.2 6.4 0.00 0.51 0.30 87 953.7
20200225075100 5 202 4.8 6.4 0.00 0.51 0.30 87 953.7
20200225074600 5 68 1.6 6.4 0.00 0.51 0.30 87 953.7
20200225074100 5 158 4.8 6.4 0.00 0.51 0.30 87 953.7
20200225073600 5 112 6.4 6.4 0.00 0.51 0.30 88 953.7
20200225073101 5 158 6.4 6.4 0.00 0.51 0.30 88 954.7
20200225072600 5 112 3.2 8.0 0.00 0.51 0.30 87 954.7
20200225072100 5 158 3.2 8.0 0.00 0.51 0.30 88 954.7
20200225071600 5 202 4.8 6.4 0.00 0.51 0.30 88 954.7
20200225071100 6 22 3.2 6.4 0.00 0.51 0.30 89 954.7
20200225070601 6 180 3.2 4.8 0.00 0.51 0.30 89 954.7
20200225070100 6 158 3.2 8.0 0.00 0.51 0.30 89 954.7
20200225065601 6 112 4.8 8.0 0.00 0.51 0.30 89 954.7
20200225065100 6 112 4.8 8.0 0.00 0.51 0.30 89 954.7
20200225064601 6 202 4.8 9.7 0.00 0.51 0.30 89 954.7
20200225064100 6 248 8.0 9.7 0.00 0.51 0.30 90 954.7
20200225063601 6 112 3.2 8.0 0.00 0.51 0.30 91 954.7
20200225063100 6 112 0.0 9.7 0.10 0.51 0.30 91 954.7
20200225062602 6 202 6.4 9.7 0.10 0.51 0.30 90 954.7
20200225062100 6 248 4.8 9.7 0.10 0.51 0.30 91 954.7
20200225061600 6 158 8.0 14.5 0.10 0.51 0.30 91 954.7
20200225061101 6 180 6.4 16.1 0.10 0.51 0.30 91 954.7
20200225060600 6 180 16.1 16.1 0.10 0.51 0.30 92 954.7
20200225060100 6 248 4.8 9.7 0.10 0.51 0.30 93 954.7
20200225055600 6 202 6.4 9.7 0.10 0.51 0.30 93 954.7
20200225055100 6 135 1.6 9.7 0.10 0.51 0.30 94 954.7
20200225054601 6 158 3.2 9.7 0.10 0.51 0.30 94 954.7
20200225054100 6 248 4.8 9.7 0.10 0.51 0.30 94 954.7
20200225053601 6 158 9.7 9.7 0.10 0.51 0.30 94 954.7
20200225053100 7 248 9.7 9.7 0.00 0.41 0.20 94 954.7
20200225052602 7 158 4.8 4.8 0.00 0.41 0.20 94 954.7
20200225052100 7 202 3.2 6.4 0.00 0.41 0.20 94 954.7
20200225051602 7 180 3.2 6.4 0.00 0.41 0.20 94 954.7
20200225051101 7 158 4.8 6.4 0.00 0.41 0.20 94 954.7
20200225050600 7 202 4.8 6.4 0.00 0.41 0.20 95 954.7
20200225050100 7 158 1.6 6.4 0.00 0.41 0.20 95 954.7
20200225045601 7 158 3.2 6.4 0.00 0.41 0.20 95 954.7
20200225045100 7 158 4.8 6.4 0.00 0.41 0.20 95 954.7
20200225044600 7 158 1.6 6.4 0.00 0.41 0.20 95 954.7
20200225044100 7 90 3.2 9.7 0.00 0.41 0.20 95 954.7
20200225043600 7 112 9.7 9.7 0.00 0.41 0.20 95 954.7
20200225043100 7 158 3.2 9.7 0.00 0.41 0.20 95 954.7
20200225042600 7 180 6.4 9.7 0.10 0.41 0.20 95 954.7
20200225042100 7 202 4.8 8.0 0.10 0.41 0.20 95 954.7
20200225041600 7 112 6.4 8.0 0.10 0.41 0.20 95 954.7
20200225041100 7 158 4.8 12.9 0.10 0.41 0.20 95 954.7
20200225040600 7 158 4.8 12.9 0.10 0.41 0.20 95 954.7
20200225040109 7 202 9.7 11.3 0.10 0.41 0.20 95 954.7
20200225035600 7 112 6.4 11.3 0.10 0.41 0.20 95 954.7
20200225035101 7 158 4.8 8.0 0.10 0.41 0.20 95 954.7
20200225034601 7 135 8.0 8.0 0.10 0.41 0.20 95 954.7
20200225034100 7 68 6.4 8.0 0.10 0.41 0.20 95 954.7
20200225033601 7 158 3.2 8.0 0.10 0.41 0.20 95 954.7
20200225033100 7 158 4.8 6.4 0.10 0.41 0.20 95 954.7
20200225032601 7 90 3.2 8.0 0.00 0.30 0.10 95 954.7
20200225032101 7 68 4.8 9.7 0.00 0.30 0.10 95 954.7
20200225031601 7 90 4.8 9.7 0.00 0.30 0.10 95 954.7
20200225031101 7 158 6.4 9.7 0.00 0.30 0.10 95 954.7
20200225030600 7 158 6.4 9.7 0.00 0.30 0.10 95 954.7
20200225030100 7 112 6.4 11.3 0.00 0.30 0.10 95 955.7
20200225025600 7 158 4.8 11.3 0.00 0.30 0.10 95 955.7
20200225025101 7 112 6.4 9.7 0.00 0.30 0.10 95 955.7
20200225024601 7 158 6.4 9.7 0.00 0.30 0.10 95 955.7
20200225024100 7 112 3.2 9.7 0.00 0.30 0.10 95 955.7
20200225023600 7 158 9.7 9.7 0.10 0.30 0.10 95 955.7
20200225023101 7 248 8.0 9.7 0.10 0.30 0.10 95 955.7
20200225022601 7 158 9.7 9.7 0.10 0.30 0.10 94 955.7
20200225022100 7 158 9.7 9.7 0.10 0.30 0.10 94 955.7
20200225021600 7 158 3.2 8.0 0.10 0.30 0.10 94 955.7
20200225021100 7 112 4.8 6.4 0.10 0.30 0.10 94 955.7
20200225020600 7 158 1.6 6.4 0.10 0.30 0.10 94 955.7
20200225020101 7 135 3.2 6.4 0.10 0.30 0.10 94 956.7
20200225015600 7 112 4.8 11.3 0.10 0.30 0.10 94 956.7
20200225015100 7 158 4.8 11.3 0.10 0.30 0.10 94 956.7
20200225014601 7 112 4.8 8.0 0.10 0.30 0.10 94 956.7
20200225014100 7 338 3.2 8.0 0.10 0.30 0.10 94 956.7
20200225013602 7 112 3.2 6.4 0.00 0.20 0.00 94 956.7
20200225013100 7 248 1.6 9.7 0.00 0.20 0.00 94 956.7
20200225012600 7 90 6.4 9.7 0.00 0.20 0.00 94 956.7
20200225012101 7 338 0.0 11.3 0.00 0.20 0.00 94 956.7
20200225011600 7 180 3.2 11.3 0.00 0.20 0.00 94 956.7
20200225011100 7 158 4.8 9.7 0.00 0.20 0.00 94 956.7
20200225010602 7 22 4.8 9.7 0.00 0.20 0.00 94 956.7
20200225010100 7 158 1.6 9.7 0.00 0.20 0.00 94 956.7